TimeMDT,TemperatureF,Dew PointF,Humidity,Sea Level PressureIn,VisibilityMPH,Wind Direction,Wind SpeedMPH,Gust SpeedMPH,PrecipitationIn,Events,Conditions,WindDirDegrees,DateUTC
6:50 AM,51.8,42.8,71,30.37,10.0,Calm,Calm,-,N/A,,Clear,0,2013-07-01 12:50:00
7:50 AM,57.2,42.8,59,30.37,10.0,Calm,Calm,-,N/A,,Clear,0,2013-07-01 13:50:00
8:50 AM,62.6,42.8,48,30.37,10.0,Calm,Calm,-,N/A,,Clear,0,2013-07-01 14:50:00
9:50 AM,66.2,42.8,43,30.35,10.0,Calm,Calm,-,N/A,,Clear,0,2013-07-01 15:50:00
10:50 AM,73.4,42.8,33,30.32,10.0,Calm,Calm,-,N/A,,Partly Cloudy,0,2013-07-01 16:50:00
11:50 AM,78.8,39.2,24,30.29,10.0,East,6.9,-,N/A,,Partly Cloudy,90,2013-07-01 17:50:00
12:50 PM,82.4,37.4,20,30.26,10.0,Variable,6.9,-,N/A,,Scattered Clouds,0,2013-07-01 18:50:00
1:20 PM,84.2,33.8,16,30.24,10.0,NNE,18.4,24.2,N/A,,Scattered Clouds,30,2013-07-01 19:20:00
1:55 PM,84.2,30.2,14,30.24,10.0,WNW,13.8,21.9,N/A,,Scattered Clouds,290,2013-07-01 19:55:00
2:55 PM,87.8,26.6,11,30.23,10.0,North,8.1,27.6,N/A,,Scattered Clouds,360,2013-07-01 20:55:00
3:50 PM,84.2,37.4,19,30.22,10.0,ENE,13.8,23.0,N/A,,Scattered Clouds,60,2013-07-01 21:50:00
4:50 PM,84.2,30.2,14,30.21,10.0,North,19.6,25.3,N/A,,Scattered Clouds,360,2013-07-01 22:50:00
5:50 PM,86.0,30.2,13,30.20,10.0,North,13.8,21.9,N/A,,Scattered Clouds,360,2013-07-01 23:50:00
6:50 PM,82.4,39.2,21,30.20,10.0,ENE,18.4,23.0,N/A,,Scattered Clouds,60,2013-07-02 00:50:00
7:15 PM,80.6,39.2,23,30.20,10.0,ENE,13.8,-,N/A,,Partly Cloudy,60,2013-07-02 01:15:00
7:55 PM,80.6,41.0,24,30.21,10.0,ENE,9.2,-,N/A,,Clear,70,2013-07-02 01:55:00
8:15 PM,78.8,42.8,28,30.22,10.0,ENE,9.2,-,N/A,,Scattered Clouds,60,2013-07-02 02:15:00
8:35 PM,77.0,41.0,28,30.22,10.0,NE,11.5,-,N/A,,Scattered Clouds,50,2013-07-02 02:35:00
9:15 PM,75.2,39.2,27,30.24,10.0,East,4.6,-,N/A,,Clear,90,2013-07-02 03:15:00
9:35 PM,71.6,41.0,33,30.25,10.0,East,3.5,-,N/A,,Clear,100,2013-07-02 03:35:00
9:55 PM,73.4,41.0,31,30.26,10.0,Calm,Calm,-,N/A,,Clear,0,2013-07-02 03:55:00
10:15 PM,71.6,41.0,33,30.28,10.0,Calm,Calm,-,N/A,,Clear,0,2013-07-02 04:15:00
10:35 PM,71.6,41.0,33,30.28,10.0,Calm,Calm,-,N/A,,Clear,0,2013-07-02 04:35:00
10:55 PM,68.0,41.0,37,30.28,10.0,ESE,3.5,-,N/A,,Clear,110,2013-07-02 04:55:00
11:15 PM,66.2,42.8,43,30.29,10.0,East,9.2,-,N/A,,Clear,80,2013-07-02 05:15:00
11:35 PM,64.4,42.8,45,30.30,10.0,ENE,6.9,-,N/A,,Clear,70,2013-07-02 05:35:00